Dewpoint
23 26 31 28 30 29 30 31 27 29 30 34 36 36 37 38 40 41 43 44 46 48 50 50 51 52 54 54 55 55 55 56 56 56 55 55 56 56 56 56 56 56 54 54
20 23 24 25 29 30 32 31 29 29 32 35 37 36 35 36 38 39 41 43 45 47 47 48 49 50 51 53 54 54 54 53 53 53 53 53 53 53 52 52 52 52 51 50
22 21 21 21 28 30 31 32 32 29 32 34 35 36 36 36 36 37 39 41 42 43 45 46 47 49 49 50 52 52 51 51 51 51 50 50 51 51 50 50 50 49 48 47
24 20 18 25 30 32 32 32 32 32 31 32 35 37 38 38 37 37 38 39 40 41 42 43 44 45 47 49 49 50 49 49 49 48 47 47 47 47 47 47 47 47 46 45
21 20 22 26 28 29 28 30 32 32 32 32 32 33 36 38 38 38 38 39 39 40 40 41 41 42 44 44 45 46 46 46 46 46 45 45 45 44 45 45 45 44 44 44
22 19 16 24 31 33 32 25 33 34 34 34 33 29 34 38 38 39 39 39 39 39 39 39 39 40 41 41 42 42 43 43 43 44 44 44 43 43 43 43 43 42 43 44
20 20 20 27 32 33 25 29 34 36 36 35 34 35 37 37 38 38 39 38 39 39 39 39 39 40 39 40 41 41 42 42 42 42 43 42 42 42 42 41 41 41 41 41
22 19 18 32 32 28 33 36 37 38 37 36 37 37 38 38 38 38 38 38 38 38 38 39 40 40 40 40 40 41 41 41 41 41 40 41 41 40 41 40 40 39 39 39
22 23 32 35 34 36 36 36 37 38 38 37 36 37 37 37 38 39 39 38 39 38 38 38 39 39 39 39 39 40 40 40 40 40 40 40 39 39 39 39 39 38 38 38
25 25 30 34 35 36 36 36 37 38 39 39 37 38 37 37 38 38 38 37 38 38 37 37 38 38 38 38 38 38 39 39 39 39 39 39 39 39 38 38 38 38 38 38
25 28 31 33 34 35 37 37 37 37 38 38 38 38 38 38 39 39 39 39 38 37 36 35 36 36 37 38 38 38 38 38 38 38 38 38 39 38 38 38 39 39 39 39
19 25 28 29 33 35 36 36 37 36 36 37 37 36 37 37 38 37 37 36 35 35 34 34 35 34 35 35 36 37 37 38 38 38 38 38 38 38 38 38 38 38 38 39
25 28 30 33 35 36 35 35 36 35 36 35 36 36 36 35 35 36 36 35 34 33 33 33 34 34 35 34 35 35 36 37 38 38 38 38 38 37 37 38 39 39 39 38
31 33 33 34 34 35 35 35 36 35 35 35 35 35 35 35 35 35 35 35 34 34 34 34 34 34 36 35 35 35 36 37 37 38 39 39 38 38 38 37 37 37 39 40
32 33 33 34 35 34 35 35 34 34 34 33 33 32 32 32 32 32 32 33 33 34 34 34 34 35 36 36 36 35 35 35 36 36 36 36 37 37 38 37 37 36 36 38
33 33 34 33 34 34 34 33 33 32 32 31 31 29 29 30 29 29 29 29 29 30 30 32 32 35 36 36 35 34 34 34 35 34 35 35 35 35 35 35 36 36 35 35
32 31 32 32 32 32 31 31 31 30 27 24 25 26 27 27 26 24 25 26 27 28 28 29 30 31 33 34 34 33 33 32 33 33 32 33 33 32 33 34 34 35 34 35
32 32 31 31 31 31 31 29 25 23 21 22 23 23 25 25 24 24 24 26 27 27 26 26 29 30 31 32 32 31 31 31 31 30 31 31 31 31 31 31 32 32 33 34
32 31 30 30 30 27 22 22 21 21 22 22 23 25 26 25 24 24 24 24 24 24 24 24 25 27 28 30 30 30 30 30 29 28 28 30 30 30 30 31 31 31 32 32
30 29 25 24 22 21 19 20 21 22 23 24 25 24 23 23 24 24 24 24 23 23 22 23 25 24 25 26 27 28 28 27 27 26 25 25 28 28 30 30 30 30 31 31
26 23 21 19 19 20 22 23 23 23 23 23 24 23 23 24 24 24 23 22 22 23 24 24 24 24 26 26 27 27 27 26 25 25 25 24 23 27 27 28 28 28 29 28
23 21 21 22 22 23 24 23 23 23 24 23 24 24 24 23 23 23 22 21 22 23 23 23 25 26 26 27 28 27 27 26 25 23 22 22 22 22 23 23 24 23 26 26
21 21 21 22 23 24 24 24 23 23 24 25 24 24 23 23 23 21 20 21 22 22 23 23 23 23 25 27 26 26 26 25 25 22 21 21 21 21 22 21 21 22 22 23
21 22 23 23 22 21 21 22 24 25 24 24 24 23 23 22 21 22 22 22 22 21 22 21 22 23 23 23 24 24 24 24 23 21 20 19 20 20 20 20 19 20 19 19
24 24 24 23 22 22 23 24 25 24 23 23 23 24 24 23 22 22 22 21 21 21 20 20 21 21 21 21 22 22 22 22 22 22 21 19 20 19 20 19 19 18 18 19
24 23 23 24 23 24 24 24 23 23 22 21 21 21 21 22 21 21 20 20 19 19 19 19 19 19 20 20 21 21 21 20 20 20 19 19 19 19 19 19 18 18 18 19
25 25 24 24 23 23 23 23 23 22 22 22 22 22 22 22 21 20 19 18 18 18 18 18 18 18 19 19 20 19 19 18 18 19 20 19 19 19 18 18 18 18 18 18
Wind_Speed
5 8 12 21 21 22 22 17 11 12 22 21 23 23 20 20 22 23 26 23 21 21 16 16 14 13 11 11 11 11 12 12 12 12 12 12 13 14 15 14 12 12 13 13
1 4 4 20 22 18 17 17 20 19 17 17 18 19 23 22 24 23 21 17 16 16 16 17 14 12 11 10 10 10 12 13 11 11 10 13 14 15 15 13 10 9 10 12
0 5 3 3 15 11 10 18 8 15 13 18 21 23 22 21 21 20 20 16 15 14 12 11 11 10 9 9 8 9 9 10 10 10 10 9 9 11 12 13 13 11 11 12
6 8 3 0 4 5 12 14 16 15 16 15 14 18 20 19 18 20 19 18 16 13 10 10 10 10 8 8 8 7 7 7 8 8 8 8 9 9 10 9 9 11 11 11
5 6 3 3 2 3 4 7 11 13 14 13 3 9 21 19 18 17 16 15 13 13 12 12 11 8 7 8 8 7 6 5 5 5 7 7 8 8 7 9 8 8 9 11
4 2 2 5 3 3 3 2 8 11 13 14 11 10 10 14 15 15 14 13 13 12 11 12 12 9 7 8 9 7 5 4 4 4 6 6 7 7 6 7 8 9 8 8
2 3 1 3 1 1 3 2 5 7 10 13 13 8 5 7 11 12 11 12 10 11 10 10 9 7 7 8 9 7 6 4 3 3 3 6 8 7 7 7 7 7 8 7
1 2 2 3 2 2 6 6 4 5 7 9 8 7 5 6 7 7 8 10 10 10 10 10 10 7 6 6 4 3 3 3 2 2 3 5 7 7 7 8 8 9 9 7
3 2 2 3 3 5 4 5 4 3 2 3 5 6 5 6 6 6 5 5 8 9 8 8 9 9 5 7 3 1 2 2 2 3 4 5 7 8 7 8 8 8 9 8
2 8 7 6 5 5 4 5 4 1 1 3 3 4 4 4 3 4 5 3 1 1 5 7 9 8 7 6 6 4 3 5 5 5 5 6 5 7 9 10 10 10 10 9
8 4 5 10 10 9 6 4 4 2 0 1 3 4 5 5 4 3 2 2 2 3 2 2 2 4 5 6 6 5 5 5 6 7 8 8 7 8 9 8 9 9 11 12
4 10 10 5 16 10 9 8 5 4 4 1 2 3 4 5 6 6 6 5 5 4 2 1 2 2 6 10 12 11 10 8 5 5 7 7 9 9 9 6 3 7 5 7
4 7 6 8 13 11 9 7 4 2 0 2 3 5 5 6 5 6 7 7 7 9 9 8 7 5 1 2 4 5 8 8 7 8 7 7 8 8 7 6 9 8 10 8
9 15 9 13 8 11 8 6 4 3 2 1 2 3 4 5 6 7 8 9 8 8 9 8 8 8 7 6 7 8 9 11 10 8 9 9 8 7 8 10 11 9 9 10
15 6 4 12 11 10 7 5 5 3 0 2 3 5 7 9 10 11 11 11 11 10 10 8 9 13 9 9 11 12 10 10 10 9 9 9 9 8 7 9 11 11 6 8
16 10 10 13 12 9 7 4 4 3 2 4 6 7 9 10 11 12 12 12 12 12 14 14 14 13 10 9 12 10 11 13 13 10 10 11 10 10 9 10 10 10 12 12
21 16 14 13 12 10 8 4 2 1 2 4 6 8 10 11 11 12 12 13 12 13 14 13 16 14 14 12 10 9 8 8 9 9 9 9 9 10 10 10 10 10 11 10
15 15 13 12 13 11 8 5 2 0 2 4 6 7 9 9 11 13 14 13 13 14 14 13 9 11 11 9 8 6 5 5 5 6 6 8 10 9 10 10 10 11 9 10
14 16 13 12 11 10 8 6 2 0 2 4 5 7 8 9 11 12 13 13 13 14 11 11 11 11 9 7 5 5 6 6 7 8 8 9 7 7 8 10 10 10 9 10
17 16 15 14 10 9 7 4 2 0 1 3 5 7 8 9 10 12 12 13 14 12 10 12 11 11 9 9 8 7 8 8 7 7 8 8 8 8 8 5 5 5 7 8
19 17 15 13 10 7 6 4 2 1 1 2 4 6 8 9 10 11 12 12 12 11 12 14 12 10 9 10 9 8 8 7 8 8 8 8 8 8 6 5 3 3 2 1
18 17 15 12 10 8 6 4 2 2 2 2 3 5 7 8 7 8 9 10 10 13 11 11 9 10 10 13 9 9 7 7 7 7 7 8 8 7 7 4 4 3 1 1
15 15 13 11 10 8 6 4 4 3 2 3 4 4 5 6 6 7 9 7 9 11 11 8 10 13 14 11 7 7 7 5 6 7 7 7 7 6 6 5 3 2 1 2
15 13 12 11 10 8 7 6 5 4 3 3 3 3 3 4 5 1 6 9 10 10 10 9 11 13 12 8 7 7 5 5 5 6 6 7 6 5 4 4 2 1 2 2
14 14 13 13 10 8 7 5 4 4 4 3 3 3 2 2 2 6 7 8 10 10 9 11 12 11 8 7 7 7 6 5 4 5 5 5 5 4 4 3 1 2 2 2
16 13 11 10 7 7 6 5 5 4 4 4 2 1 1 2 3 5 7 9 9 11 9 9 8 8 7 6 6 6 6 5 5 5 5 5 4 4 4 3 2 2 2 2
11 12 11 8 7 8 7 7 6 6 5 4 2 2 2 3 4 6 7 8 8 8 8 7 7 7 7 6 6 5 5 5 5 5 4 3 3 3 3 2 2 1 2 3
Wind_Direction
34 45 31 37 32 31 30 25 47 46 39 36 33 37 37 43 52 50 42 40 37 45 46 38 53 56 65 91 99 111 115 114 121 126 125 124 130 127 121 118 127 127 124 122
108 13 40 44 30 29 29 20 38 37 39 48 54 46 46 47 50 48 57 50 56 40 32 42 35 39 52 59 85 102 105 106 108 116 127 131 127 127 118 121 121 124 132 147
321 324 247 11 14 22 46 37 7 30 19 32 43 45 39 38 47 54 58 59 60 59 43 46 42 41 49 55 52 88 102 107 115 122 117 111 113 118 126 134 144 146 144 145
311 311 60 80 47 79 64 38 27 29 27 40 56 61 45 38 42 43 46 48 47 55 61 55 51 56 53 63 75 83 92 102 110 118 110 106 114 115 115 127 138 142 143 135
337 26 130 147 53 13 4 44 27 22 20 23 76 37 39 35 36 44 44 41 44 43 46 40 46 53 68 72 75 74 86 101 102 112 123 127 120 122 124 128 130 129 138 138
340 316 355 74 80 355 321 79 21 23 22 11 349 81 32 15 24 34 42 43 34 31 42 44 30 27 46 54 48 47 43 56 78 105 125 127 128 127 130 135 134 137 136 144
345 309 346 101 62 307 277 72 27 30 32 31 47 44 41 31 33 27 24 26 27 41 41 30 26 39 58 58 50 37 29 35 53 83 108 127 131 142 146 138 137 143 144 151
244 253 254 160 152 307 108 118 72 29 30 53 70 71 80 71 58 28 21 20 22 33 31 24 13 21 56 65 37 46 89 126 139 140 122 144 148 149 160 163 163 168 171 168
242 21 112 148 108 125 130 136 135 124 51 34 60 74 77 75 66 69 61 27 7 6 18 31 26 11 26 14 6 208 187 194 193 152 169 184 183 177 176 184 185 185 185 187
294 184 198 183 169 157 162 133 121 84 11 346 2 19 34 56 79 110 114 105 45 16 15 2 360 11 16 358 358 326 267 224 214 212 196 189 208 197 200 197 195 192 188 208
243 224 193 213 204 188 171 165 155 160 201 335 332 353 349 345 352 7 35 85 83 82 84 104 351 343 338 328 324 295 273 254 233 222 203 204 213 216 218 218 209 208 204 203
223 185 193 199 191 183 186 191 182 187 184 166 336 353 348 350 353 351 345 346 2 357 354 2 312 328 350 350 341 326 316 314 290 255 240 216 209 214 226 237 222 239 249 210
203 177 177 155 164 178 187 182 171 187 41 343 349 350 356 340 348 331 321 328 329 335 342 331 326 328 327 308 297 279 281 283 268 258 249 239 233 228 214 196 220 229 228 227
163 132 145 164 179 177 178 174 162 153 118 72 353 348 347 331 319 329 334 338 331 320 321 335 338 328 330 318 304 296 295 287 277 276 283 269 258 245 233 235 239 237 222 218
181 183 175 162 148 162 166 173 192 209 230 314 334 333 336 329 330 332 328 328 327 321 315 313 299 283 273 260 252 254 257 271 278 272 267 267 272 264 248 243 243 244 224 224
169 156 148 160 160 163 167 165 201 214 270 312 323 335 334 331 327 327 329 334 325 313 313 314 305 311 324 294 277 271 273 270 265 267 269 263 259 253 247 238 235 230 227 228
160 172 171 169 173 177 185 178 184 212 331 319 329 334 326 322 323 325 326 322 316 307 302 297 299 308 309 290 260 265 271 286 289 290 284 271 259 252 253 252 244 236 231 215
180 171 169 175 173 171 170 166 152 244 316 334 328 324 319 319 315 314 315 319 315 307 308 311 331 324 312 302 294 287 274 266 267 268 284 292 288 280 272 261 252 246 244 235
163 157 154 148 153 154 155 165 161 52 325 330 325 317 313 307 312 315 319 319 311 304 315 334 324 315 313 304 298 288 284 286 287 289 286 283 281 284 278 272 263 254 240 228
143 138 136 132 132 144 147 131 131 217 322 335 320 306 310 319 321 321 318 310 304 306 331 322 329 313 315 310 303 295 290 284 284 287 293 289 284 281 284 278 299 289 262 235
143 142 140 141 140 131 123 130 158 208 298 300 309 314 312 313 319 316 310 313 324 340 326 315 313 311 319 307 304 292 289 286 284 287 290 288 290 284 275 290 301 317 335 54
143 143 144 142 143 136 136 142 165 203 235 285 299 304 311 309 317 312 304 302 325 329 325 319 321 321 310 300 285 276 278 283 288 296 297 293 288 286 283 281 281 276 284 105
145 145 144 147 152 153 152 161 170 198 231 269 294 308 305 308 306 310 319 346 328 324 324 315 317 319 322 322 308 303 297 293 297 302 300 299 295 288 289 280 264 262 239 210
143 145 142 136 135 143 156 173 186 202 236 264 253 255 280 313 315 272 316 316 317 320 315 309 315 321 328 325 318 312 314 316 306 300 298 293 283 284 279 279 275 285 281 269
143 138 138 145 152 161 159 162 184 201 200 210 211 209 238 268 276 322 319 314 313 316 314 311 319 325 321 317 314 313 312 308 304 300 289 287 285 282 283 280 313 297 282 276
149 152 155 160 158 154 154 174 199 187 190 195 190 181 307 311 320 318 317 316 317 317 318 320 320 325 327 324 321 320 316 319 320 314 310 296 297 293 283 280 288 295 293 285
134 137 141 161 177 170 171 191 198 195 200 199 212 203 291 326 330 324 324 324 324 324 320 326 331 329 330 324 326 320 312 317 312 300 294 299 302 294 293 299 302 295 284 267